This is the latest recevied weather packets stored in our database for station/object KC5DP. If no packets are shown the sender has not sent any weather packets the latest 10 day(s).
| Time | Temp. | Humidity | Pressure | Rain* | Wind** | Luminosity | Snow |
|---|---|---|---|---|---|---|---|
| 1777765497 | 21.11° C | 46% | 1015.9 hPa | 0 mm | - | 27 W/m² | - |
| 1777765195 | 21.11° C | 46% | 1015.9 hPa | 0 mm | - | 27 W/m² | - |
| 1777764895 | 21.11° C | 44% | 1015.9 hPa | 0 mm | - | 31 W/m² | - |
| 1777764593 | 21.11° C | 46% | 1015.9 hPa | 0 mm | - | 47 W/m² | - |
| 1777764290 | 21.11° C | 45% | 1015.6 hPa | 0 mm | - | 58 W/m² | - |
| 1777763986 | 21.67° C | 45% | 1015.6 hPa | 0 mm | - | 30 W/m² | - |
| 1777763683 | 21.67° C | 43% | 1015.6 hPa | 0 mm | - | 90 W/m² | - |
| 1777763381 | 21.67° C | 42% | 1015.6 hPa | 0 mm | - | 31 W/m² | - |
| 1777763079 | 21.67° C | 43% | 1015.5 hPa | 0 mm | - | 31 W/m² | - |
| 1777762777 | 21.67° C | 45% | 1015.6 hPa | 0 mm | - | 33 W/m² | - |
| 1777762473 | 21.67° C | 45% | 1015.6 hPa | 0 mm | - | 33 W/m² | - |
| 1777762170 | 21.67° C | 41% | 1015.5 hPa | 0 mm | - | 33 W/m² | - |
| 1777761866 | 21.67° C | 43% | 1015.4 hPa | 0 mm | - | 34 W/m² | - |
| 1777761563 | 21.67° C | 44% | 1015.3 hPa | 0 mm | - | 35 W/m² | - |
| 1777761261 | 21.67° C | 41% | 1015.3 hPa | 0 mm | - | 36 W/m² | - |
| 1777760959 | 21.67° C | 39% | 1015.3 hPa | 0 mm | - | 36 W/m² | - |
| 1777760656 | 21.67° C | 40% | 1015.4 hPa | 0 mm | - | 37 W/m² | - |
| 1777760356 | 21.67° C | 40% | 1015.4 hPa | 0 mm | - | 37 W/m² | - |
| 1777760054 | 21.67° C | 41% | 1015.4 hPa | 0 mm | - | 44 W/m² | - |
| 1777759751 | 22.22° C | 38% | 1015.3 hPa | 0 mm | - | 173 W/m² | - |
| 1777759446 | 21.67° C | 41% | 1015.2 hPa | 0 mm | - | 44 W/m² | - |
| 1777759143 | 21.67° C | 40% | 1015.2 hPa | 0 mm | - | 41 W/m² | - |
| 1777758841 | 21.67° C | 39% | 1015.3 hPa | 0 mm | - | 55 W/m² | - |
| 1777758537 | 21.67° C | 38% | 1015.1 hPa | 0 mm | - | 41 W/m² | - |
| 1777758233 | 21.67° C | 40% | 1014.9 hPa | 0 mm | - | 41 W/m² | - |
* Rain latest hour (hover to see other rain measurements)
** Current wind speed in m/s (hover to see current wind gust speed)